Bluefield, WV

12:21 AM EDT on August 29, 2016 (GMT -0400)
Mercer County

Weather History for KBLF - April, 2014

Change the Weather History Date:

Sunday, April 13, 2014

  Actual Average Record
Temperature  
Mean Temperature 74 °F 54 °F  
Max Temperature 83 °F 64 °F 83 °F (2014)
Min Temperature 64 °F 45 °F 26 °F (1990)
Degree Days  
Heating Degree Days 0 11  
Month to date heating degree days 94 170  
Since 1 July heating degree days 4431 4279  
Cooling Degree Days 9 1  
Month to date cooling degree days 15 11  
Year to date cooling degree days 15 15  
Growing Degree Days 22 (Base 50)    
Moisture  
Dew Point 43 °F    
Average Humidity 35    
Maximum Humidity 49    
Minimum Humidity 21    
Precipitation  
Precipitation 0.00 in 0.11 in 1.36 in (2004)
Month to date precipitation 1.22 1.39  
Year to date precipitation 7.31 10.56  
Snow  
Snow 0.00 in - - ()
Month to date snowfall 0.0  
Since 1 July snowfall 46.6  
Snow Depth 0.00 in    
Sea Level Pressure  
Sea Level Pressure 30.01 in    
Wind  
Wind Speed 10 mph (SSW)    
Max Wind Speed 22 mph    
Max Gust Speed 36 mph    
Visibility 10 miles    
Events      
T = Trace of Precipitation, MM = Missing Value Source: NWS Daily Summary

Daily Weather History Graph

Daily Weather History Graph

Search for Another Location

Airport or City:

Trip Planner

Search our weather history database for the weather conditions in past years. The results will help you decide how hot, cold, wet, or windy it might be!

Date:

Astronomy

Apr. 13, 2014 Rise Set
Actual Time 6:53 AM EDT 7:58 PM EDT
Civil Twilight 6:26 AM EDT 8:25 PM EDT
Nautical Twilight 5:54 AM EDT 8:56 PM EDT
Astronomical Twilight 5:21 AM EDT 9:30 PM EDT
Moon 6:36 PM EDT (4/13) 5:48 AM EDT (4/13)
Length of Visible Light 13h 58m
Length of Day
13h 05m
Waxing Gibbous, 97% of the Moon is Illuminated
Apr 13
Waxing Gibbous
Apr 15
Full
Apr 22
Last Quarter
Apr 29
New
May 6
First Quarter

Hourly Weather History & Observations

Time (EDT) Temp. Dew Point Humidity Pressure Visibility Wind Dir Wind Speed Gust Speed Precip Events Conditions
12:52 AM 66.0 °F 41.0 °F 40% 30.03 in 10.0 mi SSE 13.8 mph 25.3 mph N/A   Clear
1:52 AM 66.0 °F 41.0 °F 40% 30.01 in 10.0 mi South 12.7 mph 23.0 mph N/A   Clear
2:52 AM 64.9 °F 41.0 °F 42% 30.01 in 10.0 mi South 10.4 mph 17.3 mph N/A   Clear
3:52 AM 64.0 °F 41.0 °F 43% 30.01 in 10.0 mi SSW 5.8 mph - N/A   Clear
4:52 AM 64.9 °F 41.0 °F 42% 30.01 in 10.0 mi South 6.9 mph - N/A   Clear
5:52 AM 64.0 °F 41.0 °F 43% 30.03 in 10.0 mi South 8.1 mph - N/A   Clear
6:52 AM 64.0 °F 41.0 °F 43% 30.05 in 10.0 mi South 4.6 mph - N/A   Clear
7:52 AM 64.9 °F 42.1 °F 43% 30.06 in 10.0 mi SSW 4.6 mph - N/A   Clear
8:52 AM 69.1 °F 43.0 °F 39% 30.08 in 10.0 mi WSW 5.8 mph - N/A   Clear
9:52 AM 70.0 °F 43.0 °F 38% 30.09 in 10.0 mi WNW 6.9 mph - N/A   Clear
10:52 AM 73.9 °F 43.0 °F 33% 30.09 in 10.0 mi Variable 3.5 mph - N/A   Clear
11:52 AM 77.0 °F 39.9 °F 26% 30.07 in 10.0 mi WSW 11.5 mph 17.3 mph N/A   Clear
12:52 PM 78.1 °F 39.0 °F 25% 30.04 in 10.0 mi WSW 4.6 mph - N/A   Clear
1:52 PM 79.0 °F 36.0 °F 21% 30.01 in 10.0 mi SSW 5.8 mph 17.3 mph N/A   Clear
2:52 PM 80.1 °F 37.0 °F 21% 29.99 in 10.0 mi SW 11.5 mph 19.6 mph N/A   Clear
3:52 PM 81.0 °F 41.0 °F 24% 29.95 in 10.0 mi SSW 10.4 mph 20.7 mph N/A   Clear
4:52 PM 80.1 °F 45.0 °F 29% 29.95 in 10.0 mi SSE 15.0 mph 21.9 mph N/A   Clear
5:52 PM 79.0 °F 46.0 °F 31% 29.94 in 10.0 mi SSE 10.4 mph - N/A   Clear
6:52 PM 77.0 °F 46.9 °F 34% 29.96 in 10.0 mi SSE 11.5 mph 18.4 mph N/A   Clear
8:52 PM 71.1 °F 48.0 °F 44% 29.95 in 10.0 mi South 10.4 mph 36.8 mph N/A   Clear
9:52 PM 69.1 °F 48.0 °F 47% 29.96 in 10.0 mi South 11.5 mph 24.2 mph N/A   Clear
10:52 PM 68.0 °F 48.0 °F 49% 29.95 in 10.0 mi South 20.7 mph 31.1 mph N/A   Clear
11:52 PM 68.0 °F 48.0 °F 49% 29.93 in 10.0 mi SSW 10.4 mph 24.2 mph N/A   Clear